STARLINK-31785 (60131 NORAD) Tracking and Keplerian Element Data

This shows tracking and keplerian element data for the satellite.

Feedback or suggestion? Click here.




ElementValue
Catalog60131
NameSTARLINK-31785
Epoch Orbit1715
Epoch Day286.92373013
Epoch Year2024
RAAN251.0258
Inclination53.1608
Eccentricity0.0001322
Argument of Perigee102.8895
Mean Anonmoly257.2257
Mean Motion15.39660047
Decay Rate9.31E-06
L11 60131U 24118U 24286.92373013 .00000931 00000+0 33205-4 0 9996
L22 60131 53.1608 251.0258 0001322 102.8895 257.2257 15.39660047 17155



Live tracking and technical data element details for STARLINK-31785 (NORAD 60131). STARLINK-31785 can be tracked NOW for your location showing map with azimuth and elevation plus other details from your city location.







IsCatalogInMostPopularTable: catalog: 60131, numindb: 9
Update: records affected: 1



GetName: 60131 STARLINK-31785

Hit Count: updated at: Thu, 23 Jan 2025 13:02:00 GMT